Погода в Ваймуше

Россия / Архангельская область     63°58′18″N   44°30′49″E
темп.,
°C
ветер,
м/с
пор.,
м/с
влажн.,
%
обл.,
%
осадки,
мм/ч
давл.,
гПа
погр.,
м
27 октября, ср
ср2700:00−2юв41097100 3.7 1005450
03:000ююв3999100 6.0 1002470
06:00+2ююз310100100 1.9 999521
09:00+2ююз411100100 2.4 998442
12:00+3юз411100100 0.6 997450
15:00+3юз410100100 1.2 996397
18:00+2юз31099100 0.4 995375
21:00+2зюз3999100 0.6 994485
28 октября, чт
чт2800:00−2ссз5997100 0.4 996489
03:00−5ссз51189100 0.6 1000682
06:00−5ссз61383100 0.1 10031006
09:00−5ссз512856 0.1 1008812
12:00−3ссз510815 0.0 1011852
15:00−3ссз411775 0.0 1015673
18:00−4сз412885 0.0 1018445
21:00−6зсз28965 0.0 1021172
29 октября, пт
пт2900:00−8зюз119869 0.0 102327
03:00−8юз139863 0.0 102462
06:00−6ю2696100 0.0 1023151
09:00−3ю41282100 0.0 1021612
12:00−3ю61575100 0.1 1017801
15:00−3ю61695100 2.0 1012814
18:00−2ююз51395100 1.8 1009723
21:000юз41195100 2.1 1008494
30 октября, сб
сб3000:00+1юз310100100 0.0 1008407
03:00+2зюз310100100 0.1 1008323
06:00+3зюз29100100 0.0 1009295
09:00+2зюз27100100 0.0 1010175
12:00+2юз25100100 0.0 1011134
15:00+2юз26100100 1.1 1012136
18:00+2юз27100100 1.3 1013175
21:00+2юз28100100 1.5 1014227
31 октября, вс
вс3100:00+2ююз38100100 0.0 1014230
03:00+2ююз3999100 0.0 1013223
06:00+3ю3109886 0.0 1010242
09:00+3ююз41299100 0.1 1009453
12:00+5юз51397100 0.1 1008577
15:00+5юз51395100 0.1 1007545
18:00+5юз51394100 0.2 1007606
21:00+6зюз61493100 0.2 1007733